Time,TemperatureF,DewpointF,PressureIn,WindDirection,WindDirectionDegrees,WindSpeedMPH,WindSpeedGustMPH,Humidity,HourlyPrecipIn,Conditions,Clouds,dailyrainin,SoftwareType,DateUTC
2013-04-30 00:06:00,31.2,14.0,31.86,West,271,2.0,9.0,50,0.00,,,0.00,weatherlink.com 1.10,2013-04-30 06:06:00,
2013-04-30 00:21:00,30.8,14.0,31.87,East,80,2.0,9.0,49,0.00,,,0.00,weatherlink.com 1.10,2013-04-30 06:21:00,
2013-04-30 00:36:00,31.0,13.0,31.87,WNW,292,2.0,8.0,48,0.00,,,0.00,weatherlink.com 1.10,2013-04-30 06:36:00,
2013-04-30 00:51:00,30.7,14.0,31.87,NW,313,5.0,10.0,50,0.00,,,0.00,weatherlink.com 1.10,2013-04-30 06:51:00,
2013-04-30 01:06:00,30.4,14.0,31.88,NW,306,6.0,9.0,50,0.00,,,0.00,weatherlink.com 1.10,2013-04-30 07:06:00,
2013-04-30 01:21:00,30.2,13.0,31.88,WNW,302,8.0,12.0,50,0.00,,,0.00,weatherlink.com 1.10,2013-04-30 07:21:00,
2013-04-30 01:36:00,30.0,13.0,31.88,NW,305,6.0,11.0,50,0.00,,,0.00,weatherlink.com 1.10,2013-04-30 07:36:00,
2013-04-30 01:51:00,30.5,12.0,31.89,NW,308,10.0,14.0,47,0.00,,,0.00,weatherlink.com 1.10,2013-04-30 07:51:00,
2013-04-30 02:06:00,30.5,11.0,31.89,WNW,286,11.0,19.0,45,0.00,,,0.00,weatherlink.com 1.10,2013-04-30 08:06:00,
2013-04-30 02:21:00,30.5,11.0,31.90,WNW,300,5.0,11.0,44,0.00,,,0.00,weatherlink.com 1.10,2013-04-30 08:21:00,
2013-04-30 02:36:00,30.3,11.0,31.91,SW,234,5.0,10.0,45,0.00,,,0.00,weatherlink.com 1.10,2013-04-30 08:36:00,
2013-04-30 02:51:00,30.1,12.0,31.91,WNW,301,8.0,15.0,47,0.00,,,0.00,weatherlink.com 1.10,2013-04-30 08:51:00,
2013-04-30 03:06:00,29.9,11.0,31.91,South,182,6.0,18.0,45,0.00,,,0.00,weatherlink.com 1.10,2013-04-30 09:06:00,
2013-04-30 03:21:00,30.3,11.0,31.91,WNW,286,4.0,22.0,45,0.00,,,0.00,weatherlink.com 1.10,2013-04-30 09:21:00,
2013-04-30 03:36:00,29.3,12.0,31.91,West,274,3.0,10.0,48,0.00,,,0.00,weatherlink.com 1.10,2013-04-30 09:36:00,
2013-04-30 03:51:00,29.5,11.0,31.91,West,273,4.0,10.0,47,0.00,,,0.00,weatherlink.com 1.10,2013-04-30 09:51:00,
2013-04-30 04:07:00,29.5,11.0,31.92,NW,311,4.0,7.0,47,0.00,,,0.00,weatherlink.com 1.10,2013-04-30 10:07:00,
2013-04-30 04:22:00,29.4,11.0,31.93,SSW,204,2.0,6.0,47,0.00,,,0.00,weatherlink.com 1.10,2013-04-30 10:22:00,
2013-04-30 04:37:00,28.8,12.0,31.94,NW,311,1.0,4.0,49,0.00,,,0.00,weatherlink.com 1.10,2013-04-30 10:37:00,
2013-04-30 04:52:00,28.5,12.0,31.94,WSW,240,3.0,5.0,50,0.00,,,0.00,weatherlink.com 1.10,2013-04-30 10:52:00,
2013-04-30 05:07:00,28.2,12.0,31.94,West,277,3.0,4.0,51,0.00,,,0.00,weatherlink.com 1.10,2013-04-30 11:07:00,
2013-04-30 05:22:00,28.3,12.0,31.95,NW,319,3.0,8.0,50,0.00,,,0.00,weatherlink.com 1.10,2013-04-30 11:22:00,
2013-04-30 05:37:00,27.7,12.0,31.95,WNW,302,9.0,9.0,51,0.00,,,0.00,weatherlink.com 1.10,2013-04-30 11:37:00,
2013-04-30 05:52:00,27.8,12.0,31.95,SW,221,0.0,7.0,51,0.00,,,0.00,weatherlink.com 1.10,2013-04-30 11:52:00,
2013-04-30 06:07:00,27.3,12.0,31.95,SSE,167,0.0,6.0,53,0.00,,,0.00,weatherlink.com 1.10,2013-04-30 12:07:00,
2013-04-30 06:22:00,27.2,12.0,31.96,SE,132,2.0,3.0,53,0.00,,,0.00,weatherlink.com 1.10,2013-04-30 12:22:00,
2013-04-30 06:37:00,27.2,12.0,31.97,NNE,27,4.0,5.0,53,0.00,,,0.00,weatherlink.com 1.10,2013-04-30 12:37:00,
2013-04-30 06:52:00,27.6,12.0,31.98,NE,52,1.0,11.0,52,0.00,,,0.00,weatherlink.com 1.10,2013-04-30 12:52:00,
2013-04-30 07:07:00,27.4,12.0,31.99,ENE,74,3.0,8.0,53,0.00,,,0.00,weatherlink.com 1.10,2013-04-30 13:07:00,
2013-04-30 07:22:00,27.3,13.0,32.00,West,277,1.0,4.0,54,0.00,,,0.00,weatherlink.com 1.10,2013-04-30 13:22:00,
2013-04-30 07:37:00,27.6,13.0,32.00,NW,316,1.0,6.0,55,0.00,,,0.00,weatherlink.com 1.10,2013-04-30 13:37:00,
2013-04-30 07:52:00,27.9,14.0,32.01,SW,226,1.0,3.0,56,0.00,,,0.00,weatherlink.com 1.10,2013-04-30 13:52:00,
2013-04-30 08:07:00,28.2,14.0,32.01,West,269,10.0,10.0,55,0.00,,,0.00,weatherlink.com 1.10,2013-04-30 14:07:00,
2013-04-30 08:22:00,28.2,14.0,32.02,NNW,344,8.0,13.0,56,0.00,,,0.00,weatherlink.com 1.10,2013-04-30 14:22:00,
2013-04-30 08:37:00,-999.0,-99.9,32.03,North,-999,-999.0,-999.0,-999,0.00,,,0.00,weatherlink.com 1.10,2013-04-30 14:37:00,
2013-04-30 08:52:00,-999.0,-99.9,32.03,North,-999,-999.0,-999.0,-999,0.00,,,0.00,weatherlink.com 1.10,2013-04-30 14:52:00,
2013-04-30 09:07:00,28.0,14.0,32.04,WNW,282,10.0,15.0,57,0.00,,,0.00,weatherlink.com 1.10,2013-04-30 15:07:00,
2013-04-30 09:22:00,28.2,15.0,32.04,WNW,296,12.0,15.0,57,0.00,,,0.00,weatherlink.com 1.10,2013-04-30 15:22:00,
2013-04-30 09:37:00,28.5,14.0,32.04,NW,312,15.0,19.0,55,0.00,,,0.00,weatherlink.com 1.10,2013-04-30 15:37:00,
2013-04-30 09:53:00,29.0,15.0,32.04,WNW,301,13.0,18.0,55,0.00,,,0.00,weatherlink.com 1.10,2013-04-30 15:53:00,
2013-04-30 10:08:00,29.6,15.0,32.05,WNW,282,10.0,19.0,55,0.00,,,0.00,weatherlink.com 1.10,2013-04-30 16:08:00,
2013-04-30 10:23:00,29.8,14.0,32.05,WNW,297,13.0,18.0,53,0.00,,,0.00,weatherlink.com 1.10,2013-04-30 16:23:00,
2013-04-30 10:38:00,30.8,17.0,32.06,West,273,9.0,13.0,57,0.00,,,0.00,weatherlink.com 1.10,2013-04-30 16:38:00,
2013-04-30 10:53:00,30.2,16.0,32.05,WNW,288,7.0,14.0,55,0.00,,,0.00,weatherlink.com 1.10,2013-04-30 16:53:00,
2013-04-30 11:08:00,31.0,16.0,32.06,WSW,244,1.0,11.0,54,0.00,,,0.00,weatherlink.com 1.10,2013-04-30 17:08:00,
2013-04-30 11:23:00,32.5,17.0,32.06,WNW,284,7.0,9.0,53,0.00,,,0.00,weatherlink.com 1.10,2013-04-30 17:23:00,
2013-04-30 11:38:00,32.1,17.0,32.06,NW,308,2.0,12.0,54,0.00,,,0.00,weatherlink.com 1.10,2013-04-30 17:38:00,
2013-04-30 11:53:00,35.1,19.0,32.06,SSW,192,6.0,8.0,52,0.00,,,0.00,weatherlink.com 1.10,2013-04-30 17:53:00,
2013-04-30 12:08:00,33.9,18.0,32.07,SSW,211,11.0,15.0,52,0.00,,,0.00,weatherlink.com 1.10,2013-04-30 18:08:00,
2013-04-30 12:23:00,34.0,19.0,32.08,WSW,238,8.0,17.0,55,0.00,,,0.00,weatherlink.com 1.10,2013-04-30 18:23:00,
2013-04-30 12:38:00,32.4,19.0,32.09,SSW,202,7.0,18.0,59,0.00,,,0.00,weatherlink.com 1.10,2013-04-30 18:38:00,
2013-04-30 12:53:00,30.9,17.0,32.09,West,273,6.0,12.0,57,0.00,,,0.00,weatherlink.com 1.10,2013-04-30 18:53:00,
2013-04-30 13:08:00,33.0,20.0,32.09,WSW,257,13.0,18.0,59,0.00,,,0.00,weatherlink.com 1.10,2013-04-30 19:08:00,
2013-04-30 13:23:00,33.5,17.0,32.09,West,278,3.0,14.0,52,0.00,,,0.00,weatherlink.com 1.10,2013-04-30 19:23:00,
2013-04-30 13:38:00,34.5,16.0,32.10,ESE,105,3.0,11.0,46,0.00,,,0.00,weatherlink.com 1.10,2013-04-30 19:38:00,
2013-04-30 13:53:00,33.2,15.0,32.10,West,264,6.0,16.0,47,0.00,,,0.00,weatherlink.com 1.10,2013-04-30 19:53:00,
2013-04-30 14:08:00,33.5,20.0,32.11,South,176,6.0,12.0,58,0.00,,,0.00,weatherlink.com 1.10,2013-04-30 20:08:00,
2013-04-30 14:23:00,33.3,21.0,32.12,NNW,331,17.0,21.0,61,0.00,,,0.00,weatherlink.com 1.10,2013-04-30 20:23:00,
2013-04-30 14:38:00,30.2,21.0,32.15,West,277,21.0,27.0,69,0.00,,,0.00,weatherlink.com 1.10,2013-04-30 20:38:00,
2013-04-30 14:53:00,28.0,22.0,32.16,WNW,299,21.0,27.0,78,0.00,,,0.00,weatherlink.com 1.10,2013-04-30 20:53:00,
2013-04-30 15:08:00,25.5,23.0,32.17,WNW,294,24.0,33.0,89,0.00,,,0.00,weatherlink.com 1.10,2013-04-30 21:08:00,
2013-04-30 15:23:00,26.0,24.0,32.16,NW,323,17.0,28.0,90,0.00,,,0.00,weatherlink.com 1.10,2013-04-30 21:23:00,
2013-04-30 15:38:00,27.3,24.0,32.16,NW,308,18.0,21.0,86,0.00,,,0.00,weatherlink.com 1.10,2013-04-30 21:38:00,
2013-04-30 15:53:00,28.8,25.0,32.15,North,355,7.0,14.0,85,0.00,,,0.00,weatherlink.com 1.10,2013-04-30 21:53:00,
2013-04-30 16:08:00,30.9,25.0,32.16,North,360,0.0,7.0,77,0.00,,,0.00,weatherlink.com 1.10,2013-04-30 22:08:00,
2013-04-30 16:23:00,32.4,24.0,32.17,WNW,289,5.0,6.0,71,0.00,,,0.00,weatherlink.com 1.10,2013-04-30 22:23:00,
2013-04-30 16:38:00,30.1,24.0,32.18,NNW,327,12.0,18.0,77,0.00,,,0.00,weatherlink.com 1.10,2013-04-30 22:38:00,
2013-04-30 16:53:00,28.3,24.0,32.19,West,278,9.0,14.0,84,0.00,,,0.00,weatherlink.com 1.10,2013-04-30 22:53:00,
2013-04-30 17:08:00,28.3,25.0,32.20,NNW,336,7.0,10.0,86,0.00,,,0.00,weatherlink.com 1.10,2013-04-30 23:08:00,
2013-04-30 17:24:00,28.1,25.0,32.22,NW,308,8.0,15.0,88,0.00,,,0.00,weatherlink.com 1.10,2013-04-30 23:24:00,
2013-04-30 17:39:00,28.0,25.0,32.23,NNW,342,13.0,20.0,88,0.00,,,0.00,weatherlink.com 1.10,2013-04-30 23:39:00,
2013-04-30 17:54:00,27.8,25.0,32.22,NNW,343,14.0,22.0,89,0.00,,,0.00,weatherlink.com 1.10,2013-04-30 23:54:00,
2013-04-30 18:09:00,29.1,25.0,32.22,North,5,12.0,20.0,83,0.00,,,0.00,weatherlink.com 1.10,2013-05-01 00:09:00,
2013-04-30 18:24:00,30.7,24.0,32.23,NW,321,9.0,15.0,75,0.00,,,0.00,weatherlink.com 1.10,2013-05-01 00:24:00,
2013-04-30 18:39:00,29.9,23.0,32.23,WNW,294,7.0,15.0,74,0.00,,,0.00,weatherlink.com 1.10,2013-05-01 00:39:00,
2013-04-30 18:54:00,29.6,21.0,32.25,WNW,303,7.0,10.0,69,0.00,,,0.00,weatherlink.com 1.10,2013-05-01 00:54:00,
2013-04-30 19:09:00,29.8,19.0,32.25,NNW,340,7.0,16.0,65,0.00,,,0.00,weatherlink.com 1.10,2013-05-01 01:09:00,
2013-04-30 19:24:00,30.4,20.0,32.26,WNW,290,6.0,12.0,65,0.00,,,0.00,weatherlink.com 1.10,2013-05-01 01:24:00,
2013-04-30 19:39:00,29.9,20.0,32.26,NNW,344,4.0,6.0,66,0.00,,,0.00,weatherlink.com 1.10,2013-05-01 01:39:00,
2013-04-30 19:54:00,29.5,21.0,32.29,WNW,303,10.0,19.0,71,0.00,,,0.00,weatherlink.com 1.10,2013-05-01 01:54:00,
2013-04-30 20:09:00,26.8,24.0,32.30,North,11,13.0,28.0,89,0.00,,,0.00,weatherlink.com 1.10,2013-05-01 02:09:00,
2013-04-30 20:24:00,26.6,24.0,32.30,NNW,346,15.0,19.0,90,0.00,,,0.00,weatherlink.com 1.10,2013-05-01 02:24:00,
2013-04-30 20:39:00,26.7,24.0,32.31,NNW,344,13.0,17.0,89,0.00,,,0.00,weatherlink.com 1.10,2013-05-01 02:39:00,
2013-04-30 20:54:00,26.6,24.0,32.32,NNW,348,7.0,14.0,90,0.00,,,0.00,weatherlink.com 1.10,2013-05-01 02:54:00,
2013-04-30 21:09:00,27.2,24.0,32.33,NW,323,7.0,9.0,88,0.00,,,0.00,weatherlink.com 1.10,2013-05-01 03:09:00,
2013-04-30 21:24:00,27.2,24.0,32.34,West,275,2.0,9.0,88,0.00,,,0.00,weatherlink.com 1.10,2013-05-01 03:24:00,
2013-04-30 21:39:00,27.5,24.0,32.36,WSW,249,3.0,9.0,87,0.00,,,0.00,weatherlink.com 1.10,2013-05-01 03:39:00,
2013-04-30 21:54:00,25.7,24.0,32.37,WNW,289,3.0,6.0,92,0.00,,,0.00,weatherlink.com 1.10,2013-05-01 03:54:00,
2013-04-30 22:09:00,25.9,24.0,32.37,NNW,340,0.0,5.0,93,0.00,,,0.00,weatherlink.com 1.10,2013-05-01 04:09:00,
2013-04-30 22:24:00,26.0,24.0,32.38,West,275,1.0,3.0,92,0.00,,,0.00,weatherlink.com 1.10,2013-05-01 04:24:00,
2013-04-30 22:39:00,26.1,24.0,32.39,SSE,167,0.0,2.0,92,0.00,,,0.00,weatherlink.com 1.10,2013-05-01 04:39:00,
2013-04-30 22:54:00,25.9,24.0,32.39,SSE,167,0.0,0.0,91,0.00,,,0.00,weatherlink.com 1.10,2013-05-01 04:54:00,
2013-04-30 23:09:00,25.8,24.0,32.40,SSE,167,0.0,0.0,91,0.00,,,0.00,weatherlink.com 1.10,2013-05-01 05:09:00,
2013-04-30 23:24:00,26.0,24.0,32.41,NW,308,0.0,3.0,91,0.00,,,0.00,weatherlink.com 1.10,2013-05-01 05:24:00,
2013-04-30 23:39:00,25.8,23.0,32.41,WNW,300,1.0,2.0,90,0.00,,,0.00,weatherlink.com 1.10,2013-05-01 05:39:00,
2013-04-30 23:54:00,25.7,24.0,32.41,East,94,2.0,3.0,91,0.00,,,0.00,weatherlink.com 1.10,2013-05-01 05:54:00,